Regional Weather Roundup
Issued by NWS

Home | Current Version | Previous Version | Text Only | Print | Product List | Glossary On
Versions: 1 2 3 4 5 6 7 8 9 10 11 12 13 14 15 16 17 18 19 20 21 22 23 24 25 26 27 28 29 30 31 32 33 34 35 36 37 38 39 40 41 42 43 44 45 46 47 48 49 50
000
ASUS45 KBOU 300610
RWRCO

WEATHER ROUNDUP FOR COLORADO
NATIONAL WEATHER SERVICE PUEBLO CO
1200 AM MDT THU JUL 30 2015

NOTE: "FAIR" INDICATES FEW OR NO CLOUDS BELOW 12000 FEET WITH NO
SIGNIFICANT WEATHER AND/OR OBSTRUCTIONS TO VISIBILITY.

COZ001>005-013-030-031-300700-
...NORTHWEST COLORADO...

CITY           SKY/WX    TMP DP  RH WIND       PRES   REMARKS
CRAIG          CLEAR     46  29  51 CALM      30.36R
HAYDEN         CLEAR     55  25  30 SE9       30.38S
MEEKER         CLEAR     52  30  43 NE7       30.38R
MOUNT WERNER   NOT AVBL
STEAMBOAT SPGS FAIR      50  32  49 CALM      30.41R
WALDEN         FAIR      50  23  34 CALM      30.50S
$$

COZ006>008-011-300700-
...WEST CENTRAL VALLEYS...

CITY           SKY/WX    TMP DP  RH WIND       PRES   REMARKS
GRAND JUNCTION CLEAR     71  33  24 E5        30.21R
MONTROSE       CLEAR     67  34  29 SE14      30.31R
EAGLE          CLEAR     61  32  33 E5        30.41R
RIFLE          PTCLDY    63  29  27 E7        30.29R
DELTA          NOT AVBL
NUCLA          FAIR      68  30  24 E10       30.34S
$$

COZ017>023-064>068-300700-
...SOUTHWEST COLORADO...

CITY           SKY/WX    TMP DP  RH WIND       PRES   REMARKS
DURANGO        MOCLDY    59  48  67 N7        30.41R
CORTEZ         CLEAR     64  46  52 NW3       30.33R
PAGOSA SPRINGS MOCLDY    58  48  68 CALM      30.49R
TELLURIDE      MOCLDY    59  34  39 SE5       30.59R
WOLF CREEK PAS NOT AVBL
$$

COZ009-010-012-014-032>034-037-058>063-300700-
...CENTRAL COLORADO...

CITY           SKY/WX    TMP DP  RH WIND       PRES   REMARKS
ASPEN          CLEAR     53  36  52 SW8       30.48R
BUENA VISTA    FAIR      54  51  90 CALM      30.55S
COPPER MTN     PTCLDY    54  21  28 NW6       30.80R
BERTHOUD PASS  FAIR      45  34  65 W12       30.83F
COTTONWOOD PAS CLOUDY    55  46  71 CALM      30.66S
GUNNISON       NOT AVBL
KREMMLING      CLEAR     50  30  46 E5        30.48R
LEADVILLE      PTCLDY    47  45  93 NE3       30.64R
MONARCH PASS   FOG       45  43  93 NE9       30.90S VSB<1/4
SALIDA         NOT AVBL
NIWOT RIDGE    NOT AVBL
SUNLIGHT       CLEAR     59  18  20 N5        30.72S
WILKERSON PASS MOCLDY    45  37  76 W6        30.77S
$$

COZ069>075-300700-
...SAN LUIS VALLEY/SANGRE DE CRISTO MOUNTAINS...

CITY           SKY/WX    TMP DP  RH WIND       PRES   REMARKS
ALAMOSA        CLOUDY    57  49  74 NE5       30.48R
LA VETA PASS   CLOUDY    52  41  66 MISG      30.67R
SAGUACHE       PTCLDY    54  46  76 N9        30.53S
$$

COZ035-036-038>040-300700-
...NORTHERN COLORADO FRONT RANGE...

CITY           SKY/WX    TMP DP  RH WIND       PRES   REMARKS
DENVER INTL AP MOCLDY    66  48  52 S13       30.30S
DMNS CITY PARK NOT AVBL
AURORA         MOCLDY    70  49  48 S13       30.32S
FRONT RANGE AP NOT AVBL
ERIE MUNI ARPT FAIR      64  57  78 SW3       30.27S
BOULDER MUN AP FAIR      68  52  56 CALM      30.28S
CENTENNIAL     MOCLDY    69  50  50 S9        30.33S
BROOMFIELD     PTCLDY    64  52  63 W5        30.31S
LOVELAND       PTCLDY    66  48  52 SE5       30.28S
LONGMONT       FAIR      67  56  68 N5        30.29R
$$

COZ041-046-047-076>085-087-088-300700-
...PIKES PEAK/PALMER DIVIDE AND SOUTHERN FOOTHILLS...

CITY           SKY/WX    TMP DP  RH WIND       PRES   REMARKS
COLO. SPRINGS  MOCLDY    65  49  56 E8        30.39F
A. F. ACADEMY  CLOUDY    65  48  55 VRB3      30.41F
ELLICOTT       FAIR     N/A N/A N/A SE8       30.39S
FALCON         FAIR      59  48  65 SE3       30.45S
FORT CARSON    MOCLDY    68  52  56 E7        30.35F
LIMON          MOCLDY    60  52  74 SE7       30.36S
MONUMENT HILL  NOT AVBL
TRINIDAD       CLOUDY    64  53  67 W8        30.37R
$$

COZ042>045-048>051-090-091-300700-
...NORTHEAST COLORADO...

CITY           SKY/WX    TMP DP  RH WIND       PRES   REMARKS
GREELEY ARPT   PTCLDY    66  48  52 SE9       30.27S
AKRON          PTCLDY    62  50  64 SE14      30.31S
BURLINGTON     CLEAR     62  54  74 SE10      30.31S
WRAY           FAIR      64  49  57 SE8       30.28S
STERLING       FAIR      68  46  45 S12       30.26R
HOLYOKE        FAIR      59  52  77 S7        30.28S
FORT MORGAN    FAIR      64  47  54 SE9       30.30R
$$

COZ086-089-092>099-300700-
...SOUTHEAST COLORADO...

CITY           SKY/WX    TMP DP  RH WIND       PRES   REMARKS
PUEBLO         MOCLDY    74  50  42 CALM      30.28R
LA JUNTA       CLOUDY    74  58  57 SE6       30.28S
LAMAR          MOCLDY    69  63  81 E5        30.26R
SPRINGFIELD      N/A     65  63  93 SE8       30.32R
$$




USA.gov is the U.S. government's official web portal to all federal, state and local government web resources and services.